sat.trackr.live / text

‹ back to catalog

STARLINK-30157

NORAD 57512 · 2023-113T

PAYLOAD ACTIVE UNKNOWN

§ Identity

Operator
Country
US
Launch date
2023-08-07
Launch site
AFETR
Launch vehicle
Mass (kg)
RCS (m²)

Purposes: comms

External: N2YO · Heavens-Above · Gunter

§ Orbital elements

Epoch: 2026-09-20T15:42:36.170784Z

Period
94.27 min
Inclination
43.0046°
Eccentricity
0.0001655
Mean motion
15.27578117 rev/d
Perigee alt
481.9 km
Apogee alt
484.2 km
Semi-major
6,861.2 km
B*
3.1063e-5
RAAN
329.2199°
Arg perigee
270.6630°
Mean anomaly
89.4033°
Rev number
17,379

§ Raw data

STARLINK-301571 57512U 23113T   26263.65458531  .00000593  00000+0  31063-4 0  99992 57512  43.0046 329.2199 0001655 270.6630  89.4033 15.27578117173793

JSON: /api/v1/satellites/57512 · /tle

For live sub-satellite position, see the globe view (requires WebGL).

§ Visibility from observer

Set your observer location to see the next 7 days of passes ≥ 10°. The values pass through the URL so the page stays shareable.

No JS? Fill the form by hand. The geolocation button needs JavaScript.